Location: Newark
(49.8969°N, 3.3422°E)
Time: 13:40:31
(UTC+00:00)

deb Explorer IX - Pass Details

Date: 21 January 2020
Orbit: 549 x 1099 km, 38.8° (Epoch: 24 February)

Event Time Altitude Azimuth Distance (km) Brightness Sun altitude
Rises 02:33:53 0° 259° (W) 3,879 - -47.1°
Reaches altitude 10° 02:37:04 10° 249° (WSW) 2,882 - -46.6°
Maximum altitude 02:42:55 29° 193° (SSW) 1,746 - -45.8°
Drops below altitude 10° 02:48:16 10° 136° (SE) 2,615 - -45.0°
Exits shadow 02:50:27 - 127° (SE) 3,279 ? -44.7°
Sets 02:51:01 0° 125° (SE) 3,464 ? -44.6°
